When you browse on this site, cookies collect data to enhance your experience and personalize the content and advertising you see.
Visit our Privacy Policy to learn more. By continuing to use the site, you agree to this use of cookies and data.
  • In Germany
  • List of Countries
  • For 7 days
  • Water Temperature
  • Weather Map
  • Weather Widgets
  • user-avatar
    Login

    Hourly Weather Maidstone

    Today, 24 October, Thursday

    Time Temperature Precipitation Wind Pressure Humidity
    00:00 +13°C° 0 mm 2 mps 751 mmHg 95%
    01:00 +13°C° 0 mm 2 mps 751 mmHg 95%
    02:00 +13°C° 0 mm 2 mps 751 mmHg 95%
    03:00 +13°C° 0 mm 2 mps 751 mmHg 95%
    04:00 +13°C° 0 mm 2 mps 751 mmHg 96%
    05:00 +13°C° 0 mm 2 mps 750 mmHg 96%
    06:00 +13°C° 0 mm 2 mps 750 mmHg 96%
    07:00 +13°C° 0 mm 3 mps 750 mmHg 94%
    08:00 +14°C° 0 mm 3 mps 750 mmHg 92%
    09:00 +15°C° 0 mm 4 mps 750 mmHg 91%
    10:00 +15°C° 0.1 mm 5 mps 750 mmHg 89%
    11:00 +15°C° 0.1 mm 6 mps 750 mmHg 87%
    12:00 +16°C° 0.1 mm 8 mps 750 mmHg 85%
    13:00 +15°C° 0.4 mm 6 mps 750 mmHg 83%
    14:00 +14°C° 0.4 mm 5 mps 750 mmHg 81%
    15:00 +13°C° 0.4 mm 4 mps 750 mmHg 78%
    16:00 +12°C° 0.1 mm 4 mps 751 mmHg 82%
    17:00 +12°C° 0.1 mm 5 mps 752 mmHg 86%
    18:00 +12°C° 0.1 mm 5 mps 753 mmHg 90%
    19:00 +11°C° 0 mm 4 mps 753 mmHg 89%
    20:00 +11°C° 0 mm 4 mps 754 mmHg 89%
    21:00 +10°C° 0 mm 4 mps 755 mmHg 88%
    22:00 +10°C° 0 mm 4 mps 755 mmHg 87%
    23:00 +10°C° 0 mm 4 mps 756 mmHg 87%

    Tomorrow, 25 October, Friday

    Time Temperature Precipitation Wind Pressure Humidity
    00:00 +8°C° 0 mm 4 mps 757 mmHg 87%
    01:00 +8°C° 0 mm 4 mps 757 mmHg 87%
    02:00 +8°C° 0 mm 4 mps 757 mmHg 87%
    03:00 +8°C° 0 mm 4 mps 758 mmHg 87%
    04:00 +8°C° 0 mm 4 mps 758 mmHg 87%
    05:00 +9°C° 0 mm 3 mps 758 mmHg 88%
    06:00 +9°C° 0 mm 3 mps 759 mmHg 89%
    07:00 +10°C° 0 mm 3 mps 759 mmHg 86%
    08:00 +11°C° 0 mm 4 mps 759 mmHg 83%
    09:00 +13°C° 0 mm 5 mps 760 mmHg 80%
    10:00 +13°C° 0.1 mm 5 mps 759 mmHg 81%
    11:00 +13°C° 0.1 mm 6 mps 759 mmHg 82%
    12:00 +14°C° 0.1 mm 7 mps 759 mmHg 82%
    13:00 +14°C° 0.1 mm 7 mps 758 mmHg 84%
    14:00 +13°C° 0.1 mm 8 mps 758 mmHg 87%
    15:00 +15°C° 0.1 mm 9 mps 757 mmHg 89%
    16:00 +15°C° 0.2 mm 9 mps 757 mmHg 87%
    17:00 +15°C° 0.2 mm 9 mps 756 mmHg 86%
    18:00 +15°C° 0.2 mm 9 mps 756 mmHg 85%
    19:00 +14°C° 0 mm 10 mps 756 mmHg 83%
    20:00 +14°C° 0 mm 10 mps 756 mmHg 82%
    21:00 +14°C° 0 mm 10 mps 756 mmHg 80%
    22:00 +14°C° 0 mm 10 mps 756 mmHg 81%
    23:00 +14°C° 0 mm 10 mps 756 mmHg 81%

    Day after tomorrow, 26 October, Saturday

    Time Temperature Precipitation Wind Pressure Humidity
    00:00 +14°C° 0 mm 10 mps 756 mmHg 82%
    01:00 +14°C° 0 mm 10 mps 755 mmHg 81%
    02:00 +14°C° 0 mm 10 mps 755 mmHg 81%
    03:00 +14°C° 0 mm 10 mps 755 mmHg 80%
    04:00 +15°C° 0 mm 9 mps 755 mmHg 81%
    05:00 +15°C° 0 mm 9 mps 755 mmHg 81%
    06:00 +15°C° 0 mm 9 mps 754 mmHg 82%
    07:00 +15°C° 0 mm 9 mps 754 mmHg 80%
    08:00 +15°C° 0 mm 9 mps 754 mmHg 79%
    09:00 +16°C° 0 mm 10 mps 754 mmHg 78%
    10:00 +16°C° 0 mm 10 mps 754 mmHg 75%
    11:00 +17°C° 0 mm 11 mps 754 mmHg 72%
    12:00 +17°C° 0 mm 11 mps 754 mmHg 68%
    13:00 +18°C° 0 mm 11 mps 754 mmHg 69%
    14:00 +18°C° 0 mm 11 mps 753 mmHg 69%
    15:00 +18°C° 0 mm 10 mps 753 mmHg 69%
    16:00 +17°C° 0 mm 10 mps 753 mmHg 72%
    17:00 +17°C° 0 mm 9 mps 753 mmHg 75%
    18:00 +16°C° 0 mm 9 mps 753 mmHg 78%
    19:00 +16°C° 0.1 mm 8 mps 753 mmHg 81%
    20:00 +16°C° 0.1 mm 8 mps 754 mmHg 85%
    21:00 +16°C° 0.1 mm 8 mps 754 mmHg 88%
    22:00 +15°C° 0.2 mm 7 mps 755 mmHg 85%
    23:00 +13°C° 0.2 mm 6 mps 756 mmHg 82%

    27 October, Sunday

    Time Temperature Precipitation Wind Pressure Humidity
    00:00 +12°C° 0.2 mm 5 mps 757 mmHg 78%
    01:00 +11°C° 0 mm 4 mps 757 mmHg 75%
    02:00 +10°C° 0 mm 4 mps 758 mmHg 72%
    03:00 +8°C° 0 mm 4 mps 759 mmHg 69%
    04:00 +9°C° 0 mm 3 mps 759 mmHg 67%
    05:00 +9°C° 0 mm 3 mps 760 mmHg 66%
    06:00 +8°C° 0 mm 3 mps 760 mmHg 65%
    07:00 +8°C° 0 mm 3 mps 761 mmHg 66%
    08:00 +9°C° 0 mm 3 mps 762 mmHg 67%
    09:00 +9°C° 0 mm 3 mps 762 mmHg 68%
    10:00 +9°C° 0 mm 3 mps 762 mmHg 66%
    11:00 +10°C° 0 mm 3 mps 763 mmHg 63%
    12:00 +10°C° 0 mm 3 mps 763 mmHg 60%
    13:00 +10°C° 0 mm 3 mps 763 mmHg 60%
    14:00 +10°C° 0 mm 3 mps 763 mmHg 59%
    15:00 +10°C° 0 mm 3 mps 763 mmHg 59%
    16:00 +9°C° 0 mm 2 mps 763 mmHg 62%
    17:00 +8°C° 0 mm 2 mps 763 mmHg 65%
    18:00 +7°C° 0 mm 2 mps 763 mmHg 68%
    19:00 +7°C° 0 mm 2 mps 764 mmHg 69%
    20:00 +5°C° 0 mm 3 mps 764 mmHg 71%
    21:00 +5°C° 0 mm 3 mps 764 mmHg 73%
    22:00 +5°C° 0 mm 3 mps 764 mmHg 74%
    23:00 +4°C° 0 mm 3 mps 764 mmHg 76%

    28 October, Monday

    Time Temperature Precipitation Wind Pressure Humidity
    00:00 +4°C° 0 mm 3 mps 764 mmHg 78%
    01:00 +4°C° 0 mm 3 mps 764 mmHg 78%
    02:00 +4°C° 0 mm 3 mps 764 mmHg 79%
    03:00 +3°C° 0 mm 3 mps 764 mmHg 79%
    04:00 +4°C° 0 mm 2 mps 764 mmHg 81%
    05:00 +4°C° 0 mm 2 mps 764 mmHg 83%
    06:00 +4°C° 0 mm 2 mps 764 mmHg 85%
    07:00 +4°C° 0 mm 3 mps 764 mmHg 84%
    08:00 +5°C° 0 mm 3 mps 764 mmHg 83%
    09:00 +5°C° 0 mm 3 mps 764 mmHg 82%
    10:00 +6°C° 0 mm 4 mps 764 mmHg 79%
    11:00 +7°C° 0 mm 4 mps 764 mmHg 76%
    12:00 +8°C° 0 mm 5 mps 764 mmHg 72%
    13:00 +9°C° 0 mm 5 mps 764 mmHg 71%
    14:00 +9°C° 0 mm 5 mps 764 mmHg 70%
    15:00 +9°C° 0 mm 5 mps 764 mmHg 69%
    16:00 +8°C° 0 mm 5 mps 764 mmHg 70%
    17:00 +7°C° 0 mm 5 mps 764 mmHg 72%
    18:00 +7°C° 0 mm 5 mps 764 mmHg 73%
    19:00 +6°C° 0 mm 5 mps 764 mmHg 73%
    20:00 +6°C° 0 mm 5 mps 764 mmHg 72%
    21:00 +6°C° 0 mm 5 mps 764 mmHg 71%
    22:00 +6°C° 0 mm 5 mps 764 mmHg 73%
    23:00 +6°C° 0 mm 5 mps 764 mmHg 75%

    29 October, Tuesday

    Time Temperature Precipitation Wind Pressure Humidity
    00:00 +5°C° 0 mm 5 mps 764 mmHg 77%
    01:00 +6°C° 0 mm 5 mps 764 mmHg 77%
    02:00 +6°C° 0 mm 5 mps 764 mmHg 76%
    03:00 +6°C° 0 mm 5 mps 764 mmHg 75%
    04:00 +5°C° 0 mm 5 mps 764 mmHg 76%
    05:00 +5°C° 0 mm 5 mps 764 mmHg 76%
    06:00 +5°C° 0 mm 5 mps 764 mmHg 77%
    07:00 +4°C° 0 mm 6 mps 765 mmHg 76%
    08:00 +5°C° 0 mm 6 mps 765 mmHg 75%
    09:00 +5°C° 0 mm 6 mps 765 mmHg 75%
    10:00 +7°C° 0 mm 6 mps 765 mmHg 72%
    11:00 +8°C° 0 mm 6 mps 765 mmHg 69%
    12:00 +9°C° 0 mm 6 mps 765 mmHg 66%
    13:00 +9°C° 0 mm 6 mps 765 mmHg 65%
    14:00 +9°C° 0 mm 6 mps 765 mmHg 63%
    15:00 +9°C° 0 mm 5 mps 765 mmHg 62%
    16:00 +8°C° 0 mm 5 mps 765 mmHg 66%
    17:00 +7°C° 0 mm 5 mps 766 mmHg 70%
    18:00 +6°C° 0 mm 4 mps 766 mmHg 74%
    19:00 +6°C° 0 mm 4 mps 766 mmHg 76%
    20:00 +5°C° 0 mm 4 mps 767 mmHg 78%
    21:00 +5°C° 0 mm 4 mps 767 mmHg 81%
    22:00 +5°C° 0 mm 4 mps 767 mmHg 81%
    23:00 +5°C° 0 mm 4 mps 767 mmHg 81%

    30 October, Wednesday

    Time Temperature Precipitation Wind Pressure Humidity
    00:00 +5°C° 0 mm 4 mps 767 mmHg 81%
    01:00 +5°C° 0 mm 4 mps 767 mmHg 81%
    02:00 +5°C° 0 mm 3 mps 767 mmHg 81%
    03:00 +5°C° 0 mm 3 mps 767 mmHg 81%
    04:00 +5°C° 0 mm 3 mps 768 mmHg 83%
    05:00 +5°C° 0 mm 4 mps 768 mmHg 86%
    06:00 +5°C° 0 mm 4 mps 768 mmHg 88%
    07:00 +6°C° 0 mm 4 mps 768 mmHg 83%
    08:00 +6°C° 0 mm 5 mps 768 mmHg 78%
    09:00 +7°C° 0 mm 5 mps 768 mmHg 72%
    10:00 +8°C° 0.1 mm 6 mps 768 mmHg 69%
    11:00 +8°C° 0.1 mm 6 mps 768 mmHg 66%
    12:00 +9°C° 0.1 mm 6 mps 768 mmHg 63%
    13:00 +9°C° 0 mm 6 mps 768 mmHg 64%
    14:00 +8°C° 0 mm 6 mps 767 mmHg 64%
    15:00 +8°C° 0 mm 6 mps 767 mmHg 65%
    16:00 +7°C° 0 mm 6 mps 767 mmHg 67%
    17:00 +5°C° 0 mm 6 mps 767 mmHg 70%
    18:00 +5°C° 0 mm 5 mps 767 mmHg 73%
    19:00 +5°C° 0 mm 5 mps 767 mmHg 74%
    20:00 +5°C° 0 mm 5 mps 766 mmHg 76%
    21:00 +5°C° 0 mm 5 mps 766 mmHg 77%
    22:00 +5°C° 0 mm 5 mps 766 mmHg 75%
    23:00 +5°C° 0 mm 5 mps 766 mmHg 73%
    Show more